Tracking 20383 objects as of 23-Feb-2020
HD Live streaming from Space Station
objects crossing your sky now
Track the group of recently launched Starlink satellites

COSMOS 249 DEB

Track COSMOS 249 DEB now!
10-day predictions


NORAD ID: 3923
Int'l Code: 1968-091BR
Perigee: 656.2 km
Apogee: 1,621.4 km
Inclination: 62.2 °
Period: 107.9 minutes
Semi major axis: 7509 km
RCS: 0.0428 m2 (small)
Launch date: October 20, 1968
Source: Commonwealth of Independent States (former USSR) (CIS)
Launch site: TYURATAM MISSILE AND SPACE COMPLEX (TTMTR)

Note: This is SATELLITE DEBRIS
aabbcc
Your satellite tracking list
Your tracking list is empty




NASA's NSSDC Master Catalog

Two Line Element Set (TLE):
1  3923U 68091BR  20054.09170360  .00000480  00000-0  35755-3 0  9998
2  3923  62.2284  78.4361 0642677  13.8428 347.9310 13.34013712427342
Source of the keplerian elements: AFSPC